FW3072 Weather Reports


time (UTC)temp
C
wind
direction
speed
KPH
gust
KPH
rain 1hr
cm
rain 24hr
cm
rain mn
cm
humidity
%
barometer
mb
20260508234203 11 231 0.0 4.8 0.00 0.51 0.23 42 1009.8
20260508233202 12 231 0.0 6.4 0.00 0.51 0.23 45 1009.8
20260508232202 12 281 0.0 3.2 0.00 0.51 0.23 46 1009.8
20260508231202 12 280 0.0 9.7 0.00 0.51 0.23 49 1009.8
20260508230203 12 220 1.6 6.4 0.00 0.51 0.23 46 1009.8
20260508225205 12 220 3.2 8.0 0.00 0.51 0.23 46 1009.8
20260508224225 12 161 4.8 8.0 0.00 0.51 0.23 46 1009.8
20260508223203 12 200 0.0 6.4 0.00 0.51 0.23 47 1009.9
20260508222226 12 222 1.6 6.4 0.00 0.51 0.23 48 1009.9
20260508221203 12 218 3.2 6.4 0.00 0.51 0.23 47 1009.9
20260508220204 12 217 4.8 8.0 0.00 0.51 0.23 47 1010.0
20260508215203 12 302 3.2 8.0 0.00 0.51 0.23 47 1010.0
20260508214223 12 275 4.8 9.7 0.00 0.51 0.23 48 1010.1
20260508213226 13 291 6.4 16.1 0.00 0.51 0.23 47 1010.0
20260508212204 13 283 3.2 9.7 0.00 0.51 0.23 50 1010.0
20260508211203 13 203 3.2 11.3 0.00 0.51 0.23 46 1010.0
20260508210203 13 236 3.2 12.9 0.00 0.51 0.23 48 1010.0
20260508205203 13 298 11.3 17.7 0.00 0.51 0.23 44 1010.0
20260508204202 13 285 6.4 12.9 0.00 0.51 0.23 49 1010.1
20260508203203 13 272 3.2 11.3 0.00 0.51 0.23 48 1010.1
20260508202202 13 250 4.8 11.3 0.00 0.51 0.23 54 1010.2
20260508201224 13 191 3.2 9.7 0.00 0.51 0.23 52 1010.3
20260508200204 13 207 3.2 11.3 0.00 0.51 0.23 51 1010.4
20260508195202 13 249 3.2 19.3 0.00 0.51 0.23 52 1010.6
20260508194202 13 125 4.8 9.7 0.00 0.51 0.23 55 1010.7
20260508193202 13 198 4.8 9.7 0.00 0.51 0.23 55 1010.8
20260508192225 13 247 6.4 12.9 0.00 0.51 0.23 53 1011.0
20260508191202 13 284 6.4 19.3 0.00 0.51 0.23 55 1011.0
20260508190204 13 276 1.6 14.5 0.00 0.51 0.23 58 1011.2
20260508185203 13 263 8.0 16.1 0.00 0.51 0.23 58 1011.3
20260508184202 13 313 4.8 9.7 0.00 0.51 0.23 60 1011.4
20260508183203 13 250 6.4 17.7 0.00 0.51 0.23 57 1011.4
20260508182202 13 270 3.2 12.9 0.00 0.51 0.23 59 1011.4
20260508181225 12 252 1.6 14.5 0.00 0.51 0.23 59 1011.4
20260508180202 13 321 6.4 17.7 0.00 0.51 0.23 60 1011.5
20260508175202 12 267 3.2 9.7 0.00 0.51 0.23 62 1011.4
20260508174203 11 282 8.0 12.9 0.00 0.51 0.23 59 1011.5
20260508173203 11 169 1.6 11.3 0.00 0.51 0.23 62 1011.7
20260508172203 11 279 6.4 12.9 0.00 0.51 0.23 61 1011.8
20260508171202 11 252 3.2 17.7 0.00 0.51 0.23 61 1011.8
20260508170203 11 340 3.2 17.7 0.00 0.51 0.23 57 1011.9
20260508165202 11 296 6.4 16.1 0.00 0.51 0.23 58 1011.9
20260508164224 11 344 6.4 20.9 0.00 0.51 0.23 61 1012.0
20260508163202 11 311 9.7 17.7 0.00 0.51 0.23 59 1012.2
20260508162202 11 302 9.7 24.1 0.00 0.51 0.23 65 1012.3
20260508161202 11 296 9.7 14.5 0.00 0.51 0.23 70 1012.4
20260508160202 10 289 6.4 20.9 0.00 0.51 0.23 67 1012.5
20260508155203 10 282 8.0 19.3 0.00 0.51 0.23 72 1012.3
20260508154203 10 293 9.7 14.5 0.00 0.51 0.23 73 1012.6
20260508153203 9 319 6.4 19.3 0.00 0.51 0.23 77 1012.7
20260508152202 9 301 8.0 16.1 0.00 0.51 0.23 80 1012.8
20260508151204 8 317 3.2 8.0 0.00 0.51 0.23 85 1012.8
20260508150202 8 309 4.8 12.9 0.00 0.51 0.23 86 1012.8
20260508145203 7 257 1.6 12.9 0.00 0.51 0.23 89 1012.7
20260508144202 7 304 4.8 12.9 0.00 0.51 0.23 90 1012.8
20260508143202 6 292 4.8 8.0 0.00 0.51 0.23 91 1012.8
20260508142203 6 279 3.2 11.3 0.00 0.51 0.23 92 1012.7
20260508141202 6 169 0.0 6.4 0.00 0.51 0.23 92 1012.6
20260508140204 6 254 0.0 3.2 0.00 0.51 0.23 92 1012.6
20260508135223 6 254 1.6 4.8 0.00 0.51 0.23 92 1012.8
20260508134202 6 254 3.2 4.8 0.00 0.51 0.23 93 1012.8
20260508133202 5 250 0.0 3.2 0.00 0.51 0.23 93 1012.8
20260508132203 5 249 0.0 1.6 0.00 0.51 0.23 93 1012.8
20260508131202 5 250 0.0 0.0 0.00 0.51 0.23 92 1012.7
20260508130203 5 249 0.0 3.2 0.00 0.51 0.23 92 1012.7
20260508125202 5 250 0.0 0.0 0.03 0.51 0.23 92 1012.7
20260508124204 4 249 0.0 1.6 0.03 0.51 0.23 92 1012.7
20260508123202 4 250 0.0 0.0 0.03 0.51 0.23 92 1012.5
20260508122246 4 250 0.0 4.8 0.03 0.51 0.23 92 1012.5
20260508121202 4 292 0.0 0.0 0.03 0.51 0.23 92 1012.5
20260508120203 4 291 0.0 1.6 0.00 0.48 0.20 92 1012.6
20260508115204 4 292 0.0 4.8 0.15 0.48 0.20 92 1012.5
20260508114202 4 287 0.0 11.3 0.15 0.48 0.20 92 1012.7
20260508113224 4 291 1.6 11.3 0.13 0.46 0.18 92 1012.6
20260508112202 5 291 3.2 14.5 0.08 0.41 0.13 92 1012.6
20260508111226 5 266 1.6 6.4 0.05 0.38 0.10 92 1012.3
20260508110203 5 287 3.2 4.8 0.00 0.33 0.05 92 1012.1
20260508104202 5 257 0.0 0.0 0.05 0.33 0.05 92 1011.5
20260508103202 5 257 0.0 0.0 0.03 0.30 0.03 92 1011.5
20260508102225 5 257 0.0 1.6 0.03 0.30 0.03 92 1011.5
20260508101202 5 256 0.0 3.2 0.03 0.30 0.03 92 1011.4
20260508100203 5 246 0.0 0.0 0.03 0.30 0.03 92 1011.3
20260508095202 5 246 0.0 0.0 0.00 0.28 0.00 92 1011.3
20260508094203 5 246 0.0 0.0 0.00 0.28 0.00 92 1011.3
20260508093202 5 246 0.0 0.0 0.00 0.28 0.00 92 1011.0
20260508092202 5 246 0.0 0.0 0.00 0.28 0.00 92 1011.3
20260508091204 5 246 0.0 1.6 0.00 0.28 0.00 92 1011.4
20260508090224 5 246 0.0 0.0 0.00 0.28 0.00 92 1011.3
20260508085245 5 246 0.0 1.6 0.00 0.28 0.00 92 1011.3
20260508084224 5 243 0.0 3.2 0.00 0.28 0.00 92 1011.5
20260508083203 5 244 0.0 0.0 0.00 0.28 0.00 92 1011.6
20260508082244 5 243 0.0 3.2 0.00 0.28 0.00 92 1011.6
20260508081203 5 261 1.6 4.8 0.00 0.28 0.00 92 1011.5
20260508080202 5 319 0.0 0.0 0.00 0.28 0.00 92 1011.6
20260508075203 5 319 0.0 0.0 0.00 0.28 0.00 92 1011.6
20260508074204 5 319 0.0 0.0 0.00 0.28 0.00 92 1011.5
20260508073224 4 319 0.0 0.0 0.00 0.28 0.00 92 1011.5
20260508072224 4 319 0.0 0.0 0.00 0.28 0.00 92 1011.6
20260508071203 4 319 0.0 0.0 0.00 0.28 0.00 91 1011.6
20260508070203 4 319 0.0 0.0 0.00 0.28 0.00 91 1011.6
20260508065224 4 319 0.0 0.0 0.00 0.28 0.00 91 1011.6
20260508064204 3 319 0.0 0.0 0.00 0.28 0.00 91 1011.8
20260508063203 3 319 0.0 0.0 0.00 0.28 0.00 91 1011.6
20260508062202 3 319 0.0 0.0 0.00 0.28 0.00 91 1011.7
20260508061203 3 319 0.0 0.0 0.00 0.28 0.00 91 1011.8
20260508060227 3 319 0.0 0.0 0.00 0.28 0.00 91 1011.8
20260508055223 3 319 0.0 0.0 0.00 0.28 0.00 90 1011.9
20260508054203 3 319 0.0 0.0 0.00 0.28 0.00 91 1011.9
20260508053202 3 319 0.0 0.0 0.00 0.28 0.00 90 1012.0
20260508052226 3 319 0.0 0.0 0.00 0.28 0.00 90 1011.8
20260508051202 3 319 0.0 0.0 0.00 0.28 0.00 90 1012.0
20260508050224 3 319 0.0 0.0 0.00 0.28 0.00 90 1012.0
20260508045202 3 319 0.0 0.0 0.00 0.28 0.00 90 1012.2
20260508044224 3 319 0.0 0.0 0.00 0.28 0.00 90 1012.3
20260508043202 3 319 0.0 0.0 0.00 0.28 0.00 90 1012.2
20260508042203 3 319 0.0 0.0 0.00 0.28 0.00 89 1012.2
20260508041202 3 319 0.0 0.0 0.00 0.28 0.00 89 1012.2
20260508040203 4 319 0.0 0.0 0.00 0.28 0.00 89 1012.2
20260508035202 4 319 0.0 0.0 0.00 0.28 0.28 89 1012.1
20260508034203 4 319 0.0 0.0 0.00 0.28 0.28 89 1012.2
20260508033203 4 319 0.0 0.0 0.00 0.28 0.28 89 1012.2
20260508032205 5 319 0.0 0.0 0.00 0.28 0.28 89 1012.2
20260508031225 5 319 0.0 0.0 0.00 0.28 0.28 89 1012.1
20260508030226 5 319 0.0 0.0 0.00 0.28 0.28 88 1012.1
20260508025202 5 319 0.0 0.0 0.03 0.25 0.25 88 1012.0
20260508024203 5 319 0.0 0.0 0.03 0.25 0.25 88 1011.9
20260508023225 6 319 0.0 0.0 0.03 0.25 0.25 88 1011.9
20260508022202 6 319 0.0 0.0 0.03 0.25 0.25 88 1011.8
20260508021203 6 317 0.0 4.8 0.03 0.25 0.25 88 1011.8
20260508020202 6 331 1.6 8.0 0.03 0.25 0.25 88 1012.0
20260508015206 6 294 0.0 14.5 0.20 0.20 0.20 87 1012.0
20260508014203 6 278 3.2 14.5 0.18 0.18 0.18 87 1012.1
20260508013202 6 291 0.0 11.3 0.18 0.18 0.18 86 1011.9
20260508012203 6 277 6.4 16.1 0.13 0.13 0.13 85 1012.0
20260508011203 6 264 1.6 12.9 0.08 0.08 0.08 85 1011.9
20260508010203 6 280 4.8 12.9 0.00 0.00 0.00 84 1011.6
20260508005204 6 325 0.0 0.0 0.00 0.00 0.00 83 1011.3
20260508004203 6 326 0.0 0.0 0.00 0.00 0.00 82 1011.1
20260508003203 6 326 0.0 4.8 0.00 0.00 0.00 82 1011.0
20260508002202 6 336 1.6 9.7 0.00 0.00 0.00 81 1010.9
20260508001203 7 323 0.0 19.3 0.00 0.00 0.00 79 1011.0
20260508000204 7 286 12.9 24.1 0.00 0.00 0.00 76 1011.2
20260507235203 8 298 9.7 22.5 0.00 0.00 0.00 72 1011.1